SCP
0 0 0 0 0 0 0 0 0 0 0 0 0 1 1 2 2 2 3 2 3 2 4 6 5 3 2 2 1 1 1 1 1 1 1 1 1 1 1 1 1 0 0
0 0 0 0 0 0 0 0 0 0 0 0 0 0 0 1 1 2 2 2 2 0 1 2 3 2 2 2 1 1 1 1 1 1 1 1 1 1 1 1 1 1 1
0 0 0 0 0 0 0 0 0 0 0 0 0 0 0 0 1 1 1 1 1 1 0 0 -0 1 2 2 2 1 1 1 1 1 1 1 1 1 1 1 1 1 1
0 0 0 0 0 0 0 0 0 0 0 0 0 0 0 0 0 0 0 0 0 0 0 0 0 1 2 2 2 2 1 1 1 1 1 1 1 1 1 1 1 1 1
0 0 0 0 0 0 0 0 0 0 0 0 0 0 0 0 0 0 0 0 0 0 0 0 0 0 1 2 2 2 1 1 1 1 1 1 1 1 1 1 1 1 1
0 0 0 0 0 0 0 0 0 0 0 0 0 0 0 0 0 0 0 0 0 0 0 0 0 0 1 1 1 1 1 1 1 1 1 1 1 1 1 1 1 1 1
0 0 0 0 0 0 0 0 0 0 0 0 0 0 0 0 0 0 0 0 0 0 0 0 0 0 0 0 0 1 1 0 1 1 1 1 1 1 1 1 1 1 1
0 0 0 0 0 0 0 0 0 0 0 0 0 0 0 0 0 0 0 0 0 0 0 0 0 1 1 1 1 0 1 0 1 1 1 1 1 1 1 1 1 1 1
0 0 0 0 0 0 0 0 0 0 -0 0 0 0 0 0 0 0 0 0 1 1 1 1 0 0 1 1 1 1 1 1 1 1 1 1 1 1 1 1 1 1 1
0 0 0 0 0 0 0 0 0 0 0 0 0 0 0 0 0 0 0 0 0 0 0 0 0 0 0 1 1 0 0 0 0 0 1 1 0 0 0 1 1 1 1
0 0 0 0 0 0 0 0 0 0 0 0 0 0 0 0 0 -0 0 0 0 0 0 0 0 0 0 0 0 0 0 0 1 0 0 0 0 0 0 0 1 1 1
0 0 0 0 0 0 0 0 0 0 0 0 -0 0 0 0 0 0 -0 0 0 0 0 0 0 0 0 0 0 0 0 0 0 0 0 0 0 0 0 0 0 1 1
0 0 0 0 0 0 0 0 0 0 0 0 -0 0 0 -0 0 0 0 0 0 0 0 0 0 0 0 0 0 0 0 0 0 0 0 0 0 0 0 0 0 1 1
0 0 0 0 0 0 0 0 0 0 0 -0 -0 0 0 -0 0 0 0 0 0 0 0 0 0 0 0 0 0 0 0 0 0 0 0 0 0 0 0 0 0 0 0
0 0 0 0 0 0 0 0 0 0 0 -0 -0 -0 0 0 0 0 0 0 0 0 0 0 0 0 0 0 0 0 0 0 0 0 0 0 0 0 0 0 0 0 0
0 0 0 0 0 0 0 0 0 0 -0 -0 -0 -0 0 0 0 0 0 0 0 0 0 0 0 0 0 0 0 0 0 0 0 0 0 0 0 0 0 0 0 0 0
0 0 0 0 0 0 0 0 0 0 0 -0 -0 -0 0 0 0 0 0 0 0 0 0 0 0 0 0 0 0 0 0 0 0 0 0 0 0 0 0 0 0 0 0
0 0 0 0 0 0 0 0 0 0 0 0 -0 -0 -0 0 0 0 0 0 0 0 0 0 0 0 0 0 0 0 0 0 0 0 0 0 0 0 0 0 0 0 0
0 0 0 0 0 0 0 0 0 0 0 0 0 -0 -0 -0 0 0 0 0 0 0 0 0 0 0 0 0 0 0 0 0 0 0 0 0 0 0 0 0 0 0 0
0 0 0 0 0 0 0 0 0 0 0 0 0 0 -0 -0 -0 -0 0 0 0 0 0 0 0 0 0 0 0 0 0 0 0 0 0 0 0 0 0 0 0 0 0
0 0 0 0 0 0 0 0 0 0 0 0 0 0 0 -0 -0 -0 0 0 0 0 0 0 0 0 0 0 0 0 0 0 0 0 0 0 0 0 0 0 0 0 0
0 0 0 0 0 0 0 0 0 0 0 0 0 0 0 -0 -0 -0 -0 -0 -0 0 0 0 0 0 0 0 0 0 0 0 0 0 0 0 0 0 0 0 0 0 0
0 0 0 0 0 0 0 0 0 0 0 0 0 0 -0 0 -0 -0 -0 -0 -0 -0 0 0 0 0 0 0 0 0 0 0 0 -0 0 0 0 0 0 0 0 0 0
0 0 0 0 0 0 0 0 0 0 0 0 0 0 -0 -0 -0 -0 -0 -0 -0 -0 0 0 0 0 0 0 0 0 0 0 0 0 -0 0 0 0 0 0 0 0 0
0 0 0 0 0 0 0 0 0 0 0 0 0 0 0 -0 0 -0 -0 -0 -0 -0 -0 0 0 0 0 0 0 0 0 -0 -0 0 0 0 0 0 0 0 0 0 0
0 0 0 0 0 0 0 0 0 0 0 0 0 0 0 -0 0 0 0 0 0 0 0 0 0 0 0 0 0 0 0 0 0 0 0 0 0 0 0 0 0 0 0
Wind_Speed_500mb
34 35 34 32 32 32 32 33 35 34 34 38 41 45 42 58 64 75 75 84 75 66 84 93 79 81 84 79 74 69 66 65 65 62 61 59 58 57 58 57 53 49 45
35 36 34 32 32 32 33 33 35 37 38 38 41 43 52 48 52 72 80 82 85 86 71 63 85 80 84 84 79 74 71 70 70 69 69 66 66 63 62 63 63 59 54
38 40 34 34 33 35 34 37 35 34 35 36 40 46 50 52 55 59 64 81 97 95 87 109 121 88 88 88 80 76 73 72 72 73 74 73 70 71 71 70 68 67 65
35 35 30 32 37 31 34 37 43 40 35 36 39 40 45 50 57 62 56 69 94 97 76 87 93 91 85 85 76 74 73 72 73 75 76 77 77 75 74 74 75 73 72
38 34 28 30 34 30 29 35 40 40 43 36 36 40 43 48 52 51 61 58 68 85 90 80 44 67 83 83 76 73 75 73 71 72 74 79 80 77 76 75 75 78 80
37 35 33 32 34 36 31 37 39 38 38 37 44 41 45 46 50 50 51 51 43 54 83 78 66 97 64 64 67 62 61 67 70 68 69 71 75 75 75 74 72 72 76
36 33 32 32 33 33 32 35 38 43 36 34 39 41 37 42 46 44 49 45 45 40 38 47 53 51 73 82 69 74 76 74 67 65 66 65 67 70 69 67 63 60 59
44 32 33 33 32 33 35 33 40 41 41 39 42 43 31 23 22 37 39 42 43 41 41 49 50 49 48 50 56 62 87 81 76 68 65 64 68 69 69 68 67 64 61
35 34 36 32 32 29 31 36 38 40 44 35 33 19 19 19 54 13 19 32 34 31 37 44 51 54 50 52 59 64 73 82 82 74 68 67 72 74 73 70 66 66 65
35 37 36 35 36 31 33 33 34 31 34 38 39 34 23 28 20 35 28 19 23 28 35 36 35 37 40 40 45 51 66 64 71 69 79 81 77 79 77 80 72 69 71
32 41 38 35 33 32 31 29 32 36 34 39 40 41 35 27 13 18 33 24 16 3 3 6 12 22 27 24 34 42 48 59 71 70 71 70 81 88 87 87 94 79 68
33 32 34 34 33 33 37 35 30 34 32 27 35 39 36 34 36 25 33 32 26 9 1 3 4 6 10 16 22 27 30 44 49 52 70 73 86 82 84 89 82 89 82
32 34 34 35 35 40 38 32 34 36 31 32 33 34 35 36 33 29 26 25 27 16 5 1 3 6 3 6 11 15 25 27 23 31 43 52 67 72 67 70 66 67 77
33 34 35 34 37 42 42 38 27 34 36 30 28 26 27 35 34 31 29 26 25 14 3 3 6 3 6 2 8 12 18 12 16 25 34 41 45 48 52 56 59 60 61
27 30 32 36 35 38 38 38 32 35 37 31 33 28 25 24 24 26 18 19 12 12 22 4 2 7 0 6 3 8 8 15 13 13 14 17 23 29 33 33 36 38 37
35 31 38 35 36 39 40 37 36 36 34 31 30 30 33 32 25 24 16 16 11 10 9 4 10 6 4 2 7 7 6 14 20 22 22 24 25 27 25 23 24 32 34
29 28 37 34 34 39 42 41 34 37 34 34 30 32 35 33 31 29 16 12 10 12 7 3 7 7 4 3 7 6 8 12 26 38 35 41 44 37 43 38 36 30 30
28 30 36 34 36 35 42 44 35 33 33 37 30 28 36 36 35 32 20 12 12 13 10 13 13 11 12 11 12 10 13 12 14 22 38 53 54 56 46 39 33 30 26
29 32 32 35 36 38 42 43 35 32 36 35 32 27 32 35 34 34 32 24 12 12 15 19 23 20 17 13 16 21 20 18 22 17 19 11 18 31 38 33 28 23 21
31 33 33 35 38 40 38 41 39 33 35 31 34 26 27 30 38 31 28 29 11 9 18 24 25 25 23 19 15 18 20 19 17 18 18 13 4 14 7 18 22 14 12
27 30 32 33 33 41 46 47 38 34 38 30 29 30 29 29 33 40 30 27 19 9 23 33 33 27 21 15 15 16 18 14 18 15 15 15 10 9 6 4 8 3 3
26 29 34 36 32 38 48 42 38 39 31 31 31 28 26 24 24 33 33 27 26 17 22 29 27 25 19 15 16 18 17 19 19 19 16 16 15 12 11 7 6 5 4
29 27 29 35 39 47 49 42 33 31 28 33 29 31 24 25 19 23 28 25 23 19 19 17 16 15 13 15 21 18 15 9 10 16 14 15 12 13 13 11 7 3 5
29 33 29 31 36 39 53 42 32 30 29 29 30 33 26 25 16 17 21 20 18 17 17 13 12 13 13 16 10 3 12 4 11 5 9 7 4 7 9 9 4 2 1
27 31 31 28 30 35 54 45 32 30 34 33 29 33 24 18 16 11 15 15 19 18 16 13 10 9 5 2 8 5 4 11 8 6 5 6 6 8 9 11 6 6 5
28 30 30 31 29 30 42 49 38 32 37 31 28 32 27 21 17 13 15 11 13 19 14 13 9 7 4 6 8 2 4 12 7 7 9 12 9 2 1 6 4 6 8
Wind_Direction_500mb
336 336 327 325 315 312 307 304 299 294 283 276 274 260 259 252 244 236 242 235 241 247 249 245 242 244 239 235 238 239 240 241 245 245 245 246 247 248 247 247 249 250 252
340 338 336 325 322 316 307 307 299 302 297 285 274 268 265 256 256 245 241 242 238 235 228 229 241 244 243 237 238 240 241 242 244 247 247 246 247 248 248 247 249 251 253
341 338 337 333 325 314 324 302 301 304 295 290 283 273 269 264 257 260 256 248 242 243 247 245 262 248 242 237 237 243 244 245 245 247 249 250 248 249 248 248 249 250 251
345 343 341 329 315 332 314 311 314 316 314 299 291 280 271 268 268 263 263 264 251 254 256 263 223 231 236 233 234 238 244 247 247 247 248 249 250 250 250 249 250 249 250
348 353 343 328 333 324 326 323 323 322 316 311 301 286 276 268 266 260 271 278 255 250 238 265 250 238 231 229 232 236 241 243 245 247 248 248 248 249 250 249 251 251 251
345 353 346 339 348 337 332 325 330 330 328 316 307 299 286 272 262 253 255 260 266 264 250 255 260 243 226 230 232 233 241 247 243 244 247 247 244 245 248 249 251 255 252
346 353 345 344 352 342 331 330 338 338 338 336 329 315 293 270 259 258 246 248 256 265 256 250 251 257 234 233 249 246 248 255 248 247 245 245 244 243 244 243 246 252 253
352 353 358 354 351 342 343 344 349 341 346 339 335 332 318 296 280 258 250 245 246 243 244 243 244 248 251 242 249 254 242 250 254 250 249 246 243 239 239 241 245 246 251
358 1 9 357 356 348 340 348 340 357 344 340 337 347 336 322 332 312 257 243 246 238 241 246 248 250 247 246 238 235 242 246 252 247 250 247 243 240 241 240 241 246 251
11 3 7 2 359 359 344 343 343 348 350 348 347 345 328 303 316 312 308 292 260 253 249 255 252 258 261 255 250 252 248 244 251 251 248 247 243 243 244 252 252 252 254
12 11 11 2 358 350 341 338 335 349 341 353 359 348 344 343 286 325 321 316 277 245 157 181 222 238 249 257 253 255 256 248 249 250 255 247 249 249 254 258 252 253 258
359 356 4 1 1 358 354 350 349 347 345 332 353 359 358 352 343 341 321 317 329 283 83 299 287 259 273 271 259 249 241 242 239 247 257 239 250 254 256 259 260 252 259
357 351 352 347 354 353 356 347 347 349 341 347 347 348 354 354 346 345 330 317 316 291 260 305 337 309 340 288 283 236 247 252 243 238 233 236 243 250 249 252 254 249 248
352 348 352 357 353 355 360 1 353 348 353 352 346 348 347 344 341 333 338 331 334 307 121 84 27 335 326 3 239 219 233 228 224 227 230 234 238 241 244 246 247 246 244
3 351 353 353 356 0 359 3 353 360 355 359 355 357 353 341 336 328 319 328 311 322 26 94 174 46 126 20 42 150 188 185 197 188 215 229 235 241 240 240 243 244 240
15 4 1 360 1 355 352 1 356 360 3 352 4 360 1 356 348 338 321 315 340 295 311 356 78 96 78 114 143 137 201 210 196 207 202 196 200 197 198 191 184 176 180
9 5 9 5 5 8 0 360 4 356 1 3 3 7 2 358 -0 348 331 306 300 304 269 225 136 128 136 224 185 211 293 207 202 198 206 193 172 174 168 166 167 171 169
7 4 11 4 10 9 3 5 4 358 5 2 354 359 2 3 4 1 360 332 283 251 223 211 157 148 135 150 135 152 151 153 163 169 178 157 148 150 153 148 146 149 154
6 8 6 6 7 5 4 2 4 359 3 357 3 4 9 4 2 1 1 351 275 221 223 200 164 153 159 155 144 132 124 122 121 118 115 125 94 135 139 149 151 160 171
14 12 10 13 13 5 360 3 1 2 9 360 1 5 6 11 12 7 7 9 6 197 208 186 164 155 149 151 157 138 125 109 105 100 101 105 67 53 188 177 155 141 176
9 9 6 3 12 8 6 2 8 8 6 360 5 9 10 5 24 16 20 26 38 134 166 162 154 144 141 136 151 144 139 128 101 71 70 67 107 133 124 148 260 167 241
5 2 8 4 359 6 2 4 358 14 4 4 7 9 19 13 13 25 27 46 59 98 130 142 148 152 144 142 137 131 121 117 107 118 95 71 70 87 90 102 100 220 236
350 356 9 7 357 3 358 1 11 11 11 12 10 7 14 14 27 31 32 41 67 79 88 88 114 116 117 140 126 111 101 86 94 99 77 62 59 61 73 88 93 91 260
351 359 1 2 355 5 4 9 13 22 14 9 16 15 15 14 22 44 52 37 48 54 67 89 132 130 155 151 167 21 125 120 142 106 115 87 13 38 43 66 64 87 75
343 354 355 354 360 360 7 4 7 9 8 5 8 11 15 15 20 20 65 59 44 53 54 70 95 93 99 168 158 180 238 176 183 181 178 148 169 90 22 29 61 81 56
337 347 4 350 358 358 2 6 0 10 354 22 11 13 14 24 29 39 47 51 44 46 42 52 47 74 96 151 175 286 174 215 236 234 243 196 164 115 168 4 33 66 78
Wind_Speed_850mb
34 35 34 32 32 32 32 33 35 34 34 38 41 45 42 58 64 75 75 84 75 66 84 93 79 81 84 79 74 69 66 65 65 62 61 59 58 57 58 57 53 49 45
35 36 34 32 32 32 33 33 35 37 38 38 41 43 52 48 52 72 80 82 85 86 71 63 85 80 84 84 79 74 71 70 70 69 69 66 66 63 62 63 63 59 54
38 40 34 34 33 35 34 37 35 34 35 36 40 46 50 52 55 59 64 81 97 95 87 109 121 88 88 88 80 76 73 72 72 73 74 73 70 71 71 70 68 67 65
35 35 30 32 37 31 34 37 43 40 35 36 39 40 45 50 57 62 56 69 94 97 76 87 93 91 85 85 76 74 73 72 73 75 76 77 77 75 74 74 75 73 72
38 34 28 30 34 30 29 35 40 40 43 36 36 40 43 48 52 51 61 58 68 85 90 80 44 67 83 83 76 73 75 73 71 72 74 79 80 77 76 75 75 78 80
37 35 33 32 34 36 31 37 39 38 38 37 44 41 45 46 50 50 51 51 43 54 83 78 66 97 64 64 67 62 61 67 70 68 69 71 75 75 75 74 72 72 76
36 33 32 32 33 33 32 35 38 43 36 34 39 41 37 42 46 44 49 45 45 40 38 47 53 51 73 82 69 74 76 74 67 65 66 65 67 70 69 67 63 60 59
44 32 33 33 32 33 35 33 40 41 41 39 42 43 31 23 22 37 39 42 43 41 41 49 50 49 48 50 56 62 87 81 76 68 65 64 68 69 69 68 67 64 61
35 34 36 32 32 29 31 36 38 40 44 35 33 19 19 19 54 13 19 32 34 31 37 44 51 54 50 52 59 64 73 82 82 74 68 67 72 74 73 70 66 66 65
35 37 36 35 36 31 33 33 34 31 34 38 39 34 23 28 20 35 28 19 23 28 35 36 35 37 40 40 45 51 66 64 71 69 79 81 77 79 77 80 72 69 71
32 41 38 35 33 32 31 29 32 36 34 39 40 41 35 27 13 18 33 24 16 3 3 6 12 22 27 24 34 42 48 59 71 70 71 70 81 88 87 87 94 79 68
33 32 34 34 33 33 37 35 30 34 32 27 35 39 36 34 36 25 33 32 26 9 1 3 4 6 10 16 22 27 30 44 49 52 70 73 86 82 84 89 82 89 82
32 34 34 35 35 40 38 32 34 36 31 32 33 34 35 36 33 29 26 25 27 16 5 1 3 6 3 6 11 15 25 27 23 31 43 52 67 72 67 70 66 67 77
33 34 35 34 37 42 42 38 27 34 36 30 28 26 27 35 34 31 29 26 25 14 3 3 6 3 6 2 8 12 18 12 16 25 34 41 45 48 52 56 59 60 61
27 30 32 36 35 38 38 38 32 35 37 31 33 28 25 24 24 26 18 19 12 12 22 4 2 7 0 6 3 8 8 15 13 13 14 17 23 29 33 33 36 38 37
35 31 38 35 36 39 40 37 36 36 34 31 30 30 33 32 25 24 16 16 11 10 9 4 10 6 4 2 7 7 6 14 20 22 22 24 25 27 25 23 24 32 34
29 28 37 34 34 39 42 41 34 37 34 34 30 32 35 33 31 29 16 12 10 12 7 3 7 7 4 3 7 6 8 12 26 38 35 41 44 37 43 38 36 30 30
28 30 36 34 36 35 42 44 35 33 33 37 30 28 36 36 35 32 20 12 12 13 10 13 13 11 12 11 12 10 13 12 14 22 38 53 54 56 46 39 33 30 26
29 32 32 35 36 38 42 43 35 32 36 35 32 27 32 35 34 34 32 24 12 12 15 19 23 20 17 13 16 21 20 18 22 17 19 11 18 31 38 33 28 23 21
31 33 33 35 38 40 38 41 39 33 35 31 34 26 27 30 38 31 28 29 11 9 18 24 25 25 23 19 15 18 20 19 17 18 18 13 4 14 7 18 22 14 12
27 30 32 33 33 41 46 47 38 34 38 30 29 30 29 29 33 40 30 27 19 9 23 33 33 27 21 15 15 16 18 14 18 15 15 15 10 9 6 4 8 3 3
26 29 34 36 32 38 48 42 38 39 31 31 31 28 26 24 24 33 33 27 26 17 22 29 27 25 19 15 16 18 17 19 19 19 16 16 15 12 11 7 6 5 4
29 27 29 35 39 47 49 42 33 31 28 33 29 31 24 25 19 23 28 25 23 19 19 17 16 15 13 15 21 18 15 9 10 16 14 15 12 13 13 11 7 3 5
29 33 29 31 36 39 53 42 32 30 29 29 30 33 26 25 16 17 21 20 18 17 17 13 12 13 13 16 10 3 12 4 11 5 9 7 4 7 9 9 4 2 1
27 31 31 28 30 35 54 45 32 30 34 33 29 33 24 18 16 11 15 15 19 18 16 13 10 9 5 2 8 5 4 11 8 6 5 6 6 8 9 11 6 6 5
28 30 30 31 29 30 42 49 38 32 37 31 28 32 27 21 17 13 15 11 13 19 14 13 9 7 4 6 8 2 4 12 7 7 9 12 9 2 1 6 4 6 8
Wind_Direction_850mb
336 336 327 325 315 312 307 304 299 294 283 276 274 260 259 252 244 236 242 235 241 247 249 245 242 244 239 235 238 239 240 241 245 245 245 246 247 248 247 247 249 250 252
340 338 336 325 322 316 307 307 299 302 297 285 274 268 265 256 256 245 241 242 238 235 228 229 241 244 243 237 238 240 241 242 244 247 247 246 247 248 248 247 249 251 253
341 338 337 333 325 314 324 302 301 304 295 290 283 273 269 264 257 260 256 248 242 243 247 245 262 248 242 237 237 243 244 245 245 247 249 250 248 249 248 248 249 250 251
345 343 341 329 315 332 314 311 314 316 314 299 291 280 271 268 268 263 263 264 251 254 256 263 223 231 236 233 234 238 244 247 247 247 248 249 250 250 250 249 250 249 250
348 353 343 328 333 324 326 323 323 322 316 311 301 286 276 268 266 260 271 278 255 250 238 265 250 238 231 229 232 236 241 243 245 247 248 248 248 249 250 249 251 251 251
345 353 346 339 348 337 332 325 330 330 328 316 307 299 286 272 262 253 255 260 266 264 250 255 260 243 226 230 232 233 241 247 243 244 247 247 244 245 248 249 251 255 252
346 353 345 344 352 342 331 330 338 338 338 336 329 315 293 270 259 258 246 248 256 265 256 250 251 257 234 233 249 246 248 255 248 247 245 245 244 243 244 243 246 252 253
352 353 358 354 351 342 343 344 349 341 346 339 335 332 318 296 280 258 250 245 246 243 244 243 244 248 251 242 249 254 242 250 254 250 249 246 243 239 239 241 245 246 251
358 1 9 357 356 348 340 348 340 357 344 340 337 347 336 322 332 312 257 243 246 238 241 246 248 250 247 246 238 235 242 246 252 247 250 247 243 240 241 240 241 246 251
11 3 7 2 359 359 344 343 343 348 350 348 347 345 328 303 316 312 308 292 260 253 249 255 252 258 261 255 250 252 248 244 251 251 248 247 243 243 244 252 252 252 254
12 11 11 2 358 350 341 338 335 349 341 353 359 348 344 343 286 325 321 316 277 245 157 181 222 238 249 257 253 255 256 248 249 250 255 247 249 249 254 258 252 253 258
359 356 4 1 1 358 354 350 349 347 345 332 353 359 358 352 343 341 321 317 329 283 83 299 287 259 273 271 259 249 241 242 239 247 257 239 250 254 256 259 260 252 259
357 351 352 347 354 353 356 347 347 349 341 347 347 348 354 354 346 345 330 317 316 291 260 305 337 309 340 288 283 236 247 252 243 238 233 236 243 250 249 252 254 249 248
352 348 352 357 353 355 360 1 353 348 353 352 346 348 347 344 341 333 338 331 334 307 121 84 27 335 326 3 239 219 233 228 224 227 230 234 238 241 244 246 247 246 244
3 351 353 353 356 0 359 3 353 360 355 359 355 357 353 341 336 328 319 328 311 322 26 94 174 46 126 20 42 150 188 185 197 188 215 229 235 241 240 240 243 244 240
15 4 1 360 1 355 352 1 356 360 3 352 4 360 1 356 348 338 321 315 340 295 311 356 78 96 78 114 143 137 201 210 196 207 202 196 200 197 198 191 184 176 180
9 5 9 5 5 8 0 360 4 356 1 3 3 7 2 358 -0 348 331 306 300 304 269 225 136 128 136 224 185 211 293 207 202 198 206 193 172 174 168 166 167 171 169
7 4 11 4 10 9 3 5 4 358 5 2 354 359 2 3 4 1 360 332 283 251 223 211 157 148 135 150 135 152 151 153 163 169 178 157 148 150 153 148 146 149 154
6 8 6 6 7 5 4 2 4 359 3 357 3 4 9 4 2 1 1 351 275 221 223 200 164 153 159 155 144 132 124 122 121 118 115 125 94 135 139 149 151 160 171
14 12 10 13 13 5 360 3 1 2 9 360 1 5 6 11 12 7 7 9 6 197 208 186 164 155 149 151 157 138 125 109 105 100 101 105 67 53 188 177 155 141 176
9 9 6 3 12 8 6 2 8 8 6 360 5 9 10 5 24 16 20 26 38 134 166 162 154 144 141 136 151 144 139 128 101 71 70 67 107 133 124 148 260 167 241
5 2 8 4 359 6 2 4 358 14 4 4 7 9 19 13 13 25 27 46 59 98 130 142 148 152 144 142 137 131 121 117 107 118 95 71 70 87 90 102 100 220 236
350 356 9 7 357 3 358 1 11 11 11 12 10 7 14 14 27 31 32 41 67 79 88 88 114 116 117 140 126 111 101 86 94 99 77 62 59 61 73 88 93 91 260
351 359 1 2 355 5 4 9 13 22 14 9 16 15 15 14 22 44 52 37 48 54 67 89 132 130 155 151 167 21 125 120 142 106 115 87 13 38 43 66 64 87 75
343 354 355 354 360 360 7 4 7 9 8 5 8 11 15 15 20 20 65 59 44 53 54 70 95 93 99 168 158 180 238 176 183 181 178 148 169 90 22 29 61 81 56
337 347 4 350 358 358 2 6 0 10 354 22 11 13 14 24 29 39 47 51 44 46 42 52 47 74 96 151 175 286 174 215 236 234 243 196 164 115 168 4 33 66 78